| time (UTC) | temp F | wind direction | speed MPH | gust MPH | rain 1hr in | rain 24hr in | rain mn in | humidity % | barometer mb |
| 20260506090008 | 67 | 0.0 | 0.0 | 0.00 | 0.00 | 0.00 | 47 | 1011.0 | |
| 20260506085008 | 66 | 0.0 | 0.0 | 0.00 | 0.00 | 0.00 | 49 | 1011.1 | |
| 20260506084008 | 64 | 0.0 | 0.0 | 0.00 | 0.00 | 0.00 | 50 | 1011.3 | |
| 20260506083008 | 64 | 0.0 | 0.0 | 0.00 | 0.00 | 0.00 | 51 | 1011.4 | |
| 20260506082009 | 63 | 0.0 | 0.0 | 0.00 | 0.00 | 0.00 | 50 | 1011.2 | |
| 20260506081008 | 63 | 0.0 | 0.0 | 0.00 | 0.00 | 0.00 | 50 | 1011.1 | |
| 20260506073008 | 65 | 0.0 | 0.0 | 0.00 | 0.00 | 0.00 | 46 | 1010.7 | |
| 20260506072008 | 64 | 0.0 | 0.0 | 0.00 | 0.00 | 0.00 | 45 | 1010.6 | |
| 20260506071008 | 65 | 0.0 | 0.0 | 0.00 | 0.00 | 0.00 | 44 | 1010.6 | |
| 20260506062008 | 63 | 0.0 | 0.0 | 0.00 | 0.00 | 0.00 | 46 | 1010.1 | |
| 20260506061008 | 62 | 0.0 | 0.0 | 0.00 | 0.00 | 0.00 | 47 | 1010.2 | |
| 20260506051008 | 51 | 0.0 | 0.0 | 0.00 | 0.00 | 0.00 | 66 | 1010.8 | |
| 20260506045008 | 48 | 0.0 | 0.0 | 0.00 | 0.00 | 0.00 | 69 | 1011.1 | |
| 20260506044008 | 47 | 0.0 | 0.0 | 0.00 | 0.00 | 0.00 | 72 | 1011.3 | |
| 20260506043008 | 46 | 0.0 | 0.0 | 0.00 | 0.00 | 0.00 | 75 | 1011.4 | |
| 20260506042008 | 45 | 0.0 | 0.0 | 0.00 | 0.00 | 0.00 | 75 | 1011.4 | |
| 20260506041008 | 45 | 0.0 | 0.0 | 0.00 | 0.00 | 0.00 | 74 | 1011.5 | |
| 20260506040008 | 45 | 0.0 | 0.0 | 0.00 | 0.00 | 0.00 | 74 | 1011.5 | |
| 20260506035008 | 45 | 0.0 | 0.0 | 0.00 | 0.00 | 0.00 | 74 | 1011.4 | |
| 20260506034008 | 46 | 0.0 | 0.0 | 0.00 | 0.00 | 0.00 | 72 | 1011.5 | |
| 20260506033008 | 46 | 0.0 | 0.0 | 0.00 | 0.00 | 0.00 | 71 | 1011.5 | |
| 20260506032008 | 46 | 0.0 | 0.0 | 0.00 | 0.00 | 0.00 | 70 | 1011.4 | |
| 20260506031008 | 47 | 0.0 | 0.0 | 0.00 | 0.00 | 0.00 | 69 | 1011.4 | |
| 20260506030008 | 47 | 0.0 | 0.0 | 0.00 | 0.00 | 0.00 | 68 | 1011.4 | |
| 20260506025010 | 47 | 0.0 | 0.0 | 0.00 | 0.00 | 0.00 | 67 | 1011.3 | |
| 20260506024008 | 48 | 0.0 | 0.0 | 0.00 | 0.00 | 0.00 | 65 | 1011.2 | |
| 20260506022008 | 49 | 0.0 | 0.0 | 0.00 | 0.00 | 0.00 | 63 | 1010.9 | |
| 20260506021008 | 48 | 0.0 | 0.0 | 0.00 | 0.00 | 0.00 | 64 | 1010.8 | |
| 20260506020008 | 48 | 0.0 | 0.0 | 0.00 | 0.00 | 0.00 | 65 | 1010.9 | |
| 20260506015008 | 49 | 0.0 | 0.0 | 0.00 | 0.00 | 0.00 | 64 | 1010.7 | |
| 20260506014008 | 49 | 0.0 | 0.0 | 0.00 | 0.00 | 0.00 | 64 | 1010.8 | |
| 20260506013008 | 49 | 0.0 | 0.0 | 0.00 | 0.00 | 0.00 | 64 | 1010.9 | |
| 20260506012008 | 49 | 0.0 | 0.0 | 0.00 | 0.00 | 0.00 | 63 | 1010.9 | |
| 20260506011008 | 49 | 0.0 | 0.0 | 0.00 | 0.00 | 0.00 | 63 | 1010.8 | |
| 20260506010008 | 49 | 0.0 | 0.0 | 0.00 | 0.00 | 0.00 | 63 | 1010.8 | |
| 20260506005008 | 48 | 0.0 | 0.0 | 0.00 | 0.00 | 0.00 | 64 | 1010.7 | |
| 20260506004008 | 48 | 0.0 | 0.0 | 0.00 | 0.00 | 0.00 | 64 | 1010.6 | |
| 20260506003008 | 48 | 0.0 | 0.0 | 0.00 | 0.00 | 0.00 | 65 | 1010.7 | |
| 20260506002008 | 48 | 0.0 | 0.0 | 0.00 | 0.00 | 0.00 | 64 | 1010.5 | |
| 20260506001008 | 48 | 0.0 | 0.0 | 0.00 | 0.00 | 0.00 | 64 | 1010.7 | |
| 20260506000008 | 48 | 0.0 | 0.0 | 0.00 | 0.00 | 0.00 | 64 | 1010.6 | |
| 20260505235008 | 49 | 0.0 | 0.0 | 0.00 | 0.00 | 0.00 | 63 | 1010.5 | |
| 20260505234008 | 49 | 0.0 | 0.0 | 0.00 | 0.00 | 0.00 | 62 | 1010.5 | |
| 20260505233008 | 49 | 0.0 | 0.0 | 0.00 | 0.00 | 0.00 | 62 | 1010.6 | |
| 20260505232008 | 49 | 0.0 | 0.0 | 0.00 | 0.00 | 0.00 | 61 | 1010.6 | |
| 20260505231008 | 49 | 0.0 | 0.0 | 0.00 | 0.00 | 0.00 | 61 | 1010.7 | |
| 20260505230008 | 50 | 0.0 | 0.0 | 0.00 | 0.00 | 0.00 | 59 | 1010.7 | |
| 20260505225008 | 50 | 0.0 | 0.0 | 0.00 | 0.00 | 0.00 | 58 | 1010.7 | |
| 20260505224023 | 51 | 0.0 | 0.0 | 0.00 | 0.00 | 0.00 | 58 | 1010.7 | |
| 20260505223008 | 51 | 0.0 | 0.0 | 0.00 | 0.00 | 0.00 | 57 | 1010.8 | |
| 20260505222008 | 51 | 0.0 | 0.0 | 0.00 | 0.00 | 0.00 | 57 | 1010.8 | |
| 20260505221008 | 51 | 0.0 | 0.0 | 0.00 | 0.00 | 0.00 | 57 | 1010.9 | |
| 20260505220008 | 51 | 0.0 | 0.0 | 0.00 | 0.00 | 0.00 | 57 | 1010.9 | |
| 20260505215008 | 51 | 0.0 | 0.0 | 0.00 | 0.00 | 0.00 | 57 | 1010.9 | |
| 20260505214008 | 51 | 0.0 | 0.0 | 0.00 | 0.00 | 0.00 | 58 | 1010.9 | |
| 20260505213008 | 51 | 0.0 | 0.0 | 0.00 | 0.00 | 0.00 | 58 | 1011.0 | |
| 20260505212008 | 51 | 0.0 | 0.0 | 0.00 | 0.00 | 0.00 | 58 | 1011.0 | |
| 20260505211008 | 51 | 0.0 | 0.0 | 0.00 | 0.00 | 0.00 | 58 | 1011.0 | |
| 20260505210008 | 52 | 0.0 | 0.0 | 0.00 | 0.00 | 0.00 | 56 | 1010.8 | |
| 20260505205008 | 53 | 0.0 | 0.0 | 0.00 | 0.00 | 0.00 | 56 | 1010.8 | |
| 20260505204008 | 54 | 0.0 | 0.0 | 0.00 | 0.00 | 0.00 | 54 | 1010.8 | |
| 20260505203008 | 54 | 0.0 | 0.0 | 0.00 | 0.00 | 0.00 | 53 | 1010.7 | |
| 20260505202008 | 54 | 0.0 | 0.0 | 0.00 | 0.00 | 0.00 | 53 | 1010.7 | |
| 20260505201008 | 55 | 0.0 | 0.0 | 0.00 | 0.00 | 0.00 | 52 | 1010.6 | |
| 20260505200008 | 55 | 0.0 | 0.0 | 0.00 | 0.00 | 0.00 | 52 | 1010.6 | |
| 20260505195008 | 56 | 0.0 | 0.0 | 0.00 | 0.00 | 0.00 | 51 | 1010.5 | |
| 20260505194008 | 57 | 0.0 | 0.0 | 0.00 | 0.00 | 0.00 | 49 | 1010.3 | |
| 20260505193009 | 57 | 0.0 | 0.0 | 0.00 | 0.00 | 0.00 | 48 | 1010.3 | |
| 20260505192008 | 58 | 0.0 | 0.0 | 0.00 | 0.00 | 0.00 | 46 | 1010.2 | |
| 20260505191008 | 59 | 0.0 | 0.0 | 0.00 | 0.00 | 0.00 | 45 | 1010.2 | |
| 20260505190008 | 60 | 0.0 | 0.0 | 0.00 | 0.00 | 0.00 | 43 | 1010.2 | |
| 20260505185008 | 62 | 0.0 | 0.0 | 0.00 | 0.00 | 0.00 | 41 | 1010.0 | |
| 20260505184008 | 63 | 0.0 | 0.0 | 0.00 | 0.00 | 0.00 | 39 | 1009.9 | |
| 20260505183008 | 64 | 0.0 | 0.0 | 0.00 | 0.00 | 0.00 | 38 | 1009.7 | |
| 20260505182008 | 66 | 0.0 | 0.0 | 0.00 | 0.00 | 0.00 | 35 | 1009.6 | |
| 20260505181008 | 68 | 0.0 | 0.0 | 0.00 | 0.00 | 0.00 | 33 | 1009.4 | |
| 20260505180008 | 70 | 0.0 | 0.0 | 0.00 | 0.00 | 0.00 | 29 | 1009.3 | |
| 20260505175008 | 71 | 0.0 | 0.0 | 0.00 | 0.00 | 0.00 | 27 | 1009.2 | |
| 20260505174008 | 73 | 0.0 | 0.0 | 0.00 | 0.00 | 0.00 | 24 | 1009.1 | |
| 20260505173008 | 74 | 0.0 | 0.0 | 0.00 | 0.00 | 0.00 | 22 | 1009.0 | |
| 20260505172008 | 75 | 0.0 | 0.0 | 0.00 | 0.00 | 0.00 | 21 | 1008.9 | |
| 20260505171008 | 77 | 0.0 | 0.0 | 0.00 | 0.00 | 0.00 | 20 | 1008.9 | |
| 20260505170008 | 78 | 0.0 | 0.0 | 0.00 | 0.00 | 0.00 | 20 | 1008.8 | |
| 20260505165008 | 79 | 0.0 | 0.0 | 0.00 | 0.00 | 0.00 | 18 | 1008.7 | |
| 20260505164008 | 82 | 0.0 | 0.0 | 0.00 | 0.00 | 0.00 | 17 | 1008.6 | |
| 20260505163009 | 82 | 0.0 | 0.0 | 0.00 | 0.00 | 0.00 | 17 | 1008.8 | |
| 20260505162008 | 81 | 0.0 | 0.0 | 0.00 | 0.00 | 0.00 | 18 | 1008.8 | |
| 20260505161008 | 80 | 0.0 | 0.0 | 0.00 | 0.00 | 0.00 | 18 | 1008.9 | |
| 20260505153008 | 83 | 0.0 | 0.0 | 0.00 | 0.00 | 0.00 | 17 | 1009.1 | |
| 20260505152008 | 85 | 0.0 | 0.0 | 0.00 | 0.00 | 0.00 | 16 | 1009.0 | |
| 20260505151008 | 84 | 0.0 | 0.0 | 0.00 | 0.00 | 0.00 | 17 | 1009.2 | |
| 20260505125008 | 84 | 0.0 | 0.0 | 0.00 | 0.00 | 0.00 | 19 | 1010.5 | |
| 20260505124008 | 83 | 0.0 | 0.0 | 0.00 | 0.00 | 0.00 | 19 | 1010.8 | |
| 20260505123008 | 82 | 0.0 | 0.0 | 0.00 | 0.00 | 0.00 | 20 | 1010.8 | |
| 20260505122008 | 81 | 0.0 | 0.0 | 0.00 | 0.00 | 0.00 | 21 | 1011.1 | |
| 20260505121009 | 81 | 0.0 | 0.0 | 0.00 | 0.00 | 0.00 | 20 | 1011.2 | |
| 20260505120008 | 80 | 0.0 | 0.0 | 0.00 | 0.00 | 0.00 | 22 | 1011.4 | |
| 20260505115008 | 80 | 0.0 | 0.0 | 0.00 | 0.00 | 0.00 | 22 | 1011.5 | |
| 20260505114008 | 79 | 0.0 | 0.0 | 0.00 | 0.00 | 0.00 | 23 | 1011.7 | |
| 20260505113008 | 78 | 0.0 | 0.0 | 0.00 | 0.00 | 0.00 | 23 | 1011.8 | |
| 20260505112008 | 77 | 0.0 | 0.0 | 0.00 | 0.00 | 0.00 | 24 | 1012.0 | |
| 20260505111008 | 76 | 0.0 | 0.0 | 0.00 | 0.00 | 0.00 | 24 | 1012.2 | |
| 20260505102008 | 73 | 0.0 | 0.0 | 0.00 | 0.00 | 0.00 | 25 | 1012.7 | |
| 20260505101008 | 72 | 0.0 | 0.0 | 0.00 | 0.00 | 0.00 | 25 | 1012.9 | |
| 20260505100008 | 72 | 0.0 | 0.0 | 0.00 | 0.00 | 0.00 | 25 | 1013.1 | |
| 20260505095008 | 72 | 0.0 | 0.0 | 0.00 | 0.00 | 0.00 | 25 | 1013.2 | |
| 20260505094008 | 72 | 0.0 | 0.0 | 0.00 | 0.00 | 0.00 | 25 | 1013.2 | |
| 20260505093008 | 72 | 0.0 | 0.0 | 0.00 | 0.00 | 0.00 | 25 | 1013.1 | |
| 20260505092008 | 72 | 0.0 | 0.0 | 0.00 | 0.00 | 0.00 | 26 | 1013.3 | |
| 20260505091008 | 71 | 0.0 | 0.0 | 0.00 | 0.00 | 0.00 | 24 | 1013.4 |